Farmington, MO

10:06 AM CST on December 06, 2019 (GMT -0600)
Farmington Regional

Weather History for KFAM - October, 2019

Change the Weather History Date:

Tuesday, October 29, 2019

  Actual Average Record
Temperature  
Mean Temperature 46 °F -  
Max Temperature 54 °F 61 °F 82 °F (2016)
Min Temperature 39 °F 43 °F 21 °F (2017)
Degree Days  
Heating Degree Days 18    
Moisture  
Dew Point 41 °F    
Average Humidity 94    
Maximum Humidity 100    
Minimum Humidity 87    
Precipitation  
Precipitation 0.03 in - - ()
Sea Level Pressure  
Sea Level Pressure 30.20 in    
Wind  
Wind Speed 9 mph (North)    
Max Wind Speed 12 mph    
Max Gust Speed 18 mph    
Visibility 8 miles    
Events Rain    
Averages and records for this station are not official NWS values.
T = Trace of Precipitation, MM = Missing Value Source: NWS Daily Summary

Daily Weather History Graph

Daily Weather History Graph

Search for Another Location

Airport or City:

Astronomy

Oct. 29, 2019 Rise Set
Actual Time 7:23 AM CDT 6:06 PM CDT
Civil Twilight 6:56 AM CDT 6:33 PM CDT
Nautical Twilight 6:25 AM CDT 7:04 PM CDT
Astronomical Twilight 5:55 AM CDT 7:34 PM CDT
Moon 8:56 AM CDT (10/29) 7:32 PM CDT (10/29)
Length of Visible Light 11h 36m
Length of Day
10h 42m
Waxing Crescent, 3% of the Moon is Illuminated
Oct 29
Waxing Crescent
Nov 4
First Quarter
Nov 12
Full
Nov 19
Last Quarter
Nov 26
New

Hourly Weather History & Observations

Time (CDT) Temp. Windchill Dew Point Humidity Pressure Visibility Wind Dir Wind Speed Gust Speed Precip Events Conditions
12:56 AM 54.0 °F - 51.1 °F 90% 30.04 in 10.0 mi SSW 10.4 mph 18.4 mph N/A   Overcast
1:56 AM 53.1 °F - 51.1 °F 93% 30.06 in 10.0 mi SSW 10.4 mph - N/A   Overcast
2:56 AM 54.0 °F - 52.0 °F 93% 30.07 in 10.0 mi SW 6.9 mph - N/A   Overcast
3:56 AM 52.0 °F - 51.1 °F 97% 30.09 in 5.0 mi NW 10.4 mph - 0.01 in Rain Light Rain
4:43 AM 48.2 °F - 46.4 °F 93% 30.08 in 10.0 mi NW 9.2 mph - 0.00 in   Overcast
4:56 AM 48.0 °F - 46.9 °F 96% 30.12 in 10.0 mi NW 6.9 mph - 0.00 in   Overcast
5:42 AM 46.4 °F 42.4 °F 44.6 °F 93% 30.11 in 10.0 mi NW 8.1 mph - N/A   Overcast
5:51 AM 44.6 °F 39.7 °F 44.6 °F 100% 30.11 in 10.0 mi North 9.2 mph - N/A   Overcast
6:34 AM 44.6 °F 39.7 °F 42.8 °F 93% 30.12 in 10.0 mi North 9.2 mph - N/A   Overcast
6:56 AM 42.1 °F 35.7 °F 42.1 °F 100% 30.18 in 10.0 mi NNW 11.5 mph - N/A   Overcast
7:33 AM 41.0 °F 35.8 °F 39.2 °F 93% 30.16 in 10.0 mi NNW 8.1 mph - N/A   Overcast
7:56 AM 41.0 °F 37.1 °F 39.9 °F 96% 30.22 in 10.0 mi NNW 5.8 mph - N/A   Overcast
8:56 AM 41.0 °F 35.2 °F 39.0 °F 93% 30.25 in 10.0 mi NNW 9.2 mph - N/A   Overcast
9:56 AM 42.1 °F 38.4 °F 39.0 °F 89% 30.24 in 10.0 mi North 5.8 mph - N/A   Overcast
10:56 AM 41.0 °F 36.4 °F 39.9 °F 96% 30.27 in 10.0 mi North 6.9 mph - N/A   Overcast
11:28 AM 41.0 °F 36.4 °F 39.2 °F 93% 30.24 in 10.0 mi NNW 6.9 mph - N/A   Overcast
11:56 AM 42.1 °F 38.4 °F 39.9 °F 92% 30.27 in 10.0 mi North 5.8 mph - N/A   Overcast
12:17 PM 42.8 °F 37.0 °F 39.2 °F 87% 30.23 in 10.0 mi NNE 10.4 mph - N/A   Overcast
12:56 PM 41.0 °F 36.4 °F 39.9 °F 96% 30.26 in 10.0 mi NNW 6.9 mph - N/A   Overcast
1:56 PM 42.1 °F 37.1 °F 39.9 °F 92% 30.25 in 10.0 mi NNE 8.1 mph - N/A   Overcast
2:04 PM 42.8 °F 37.5 °F 39.2 °F 87% 30.20 in 10.0 mi NE 9.2 mph - N/A   Overcast
2:56 PM 43.0 °F 38.8 °F 39.9 °F 89% 30.24 in 10.0 mi North 6.9 mph - N/A   Overcast
3:45 PM 42.8 °F 38.6 °F 39.2 °F 87% 30.21 in 10.0 mi NE 6.9 mph - N/A   Overcast
3:56 PM 43.0 °F 38.2 °F 39.9 °F 89% 30.25 in 10.0 mi NE 8.1 mph - N/A   Overcast
4:17 PM 42.8 °F 38.6 °F 39.2 °F 87% 30.20 in 10.0 mi North 6.9 mph - N/A   Overcast
4:56 PM 42.1 °F 37.7 °F 39.0 °F 89% 30.24 in 9.0 mi NNE 6.9 mph - N/A   Overcast
5:56 PM 41.0 °F 35.2 °F 39.0 °F 93% 30.23 in 9.0 mi NNE 9.2 mph - N/A   Overcast
6:56 PM 41.0 °F 37.1 °F 39.0 °F 93% 30.24 in 4.0 mi Variable 5.8 mph - N/A   Overcast
7:53 PM 39.2 °F 32.5 °F 39.2 °F 100% 30.19 in 2.5 mi NNE 10.4 mph - 0.00 in Rain Light Rain
7:56 PM 39.9 °F 33.4 °F 39.0 °F 97% 30.24 in 2.5 mi NNE 10.4 mph - 0.00 in Rain Light Rain
8:56 PM 39.9 °F 33.9 °F 39.0 °F 97% 30.25 in 3.0 mi North 9.2 mph - 0.01 in Rain Light Rain
9:26 PM 39.2 °F 33.0 °F 39.2 °F 100% 30.20 in 3.0 mi NE 9.2 mph - 0.00 in Rain Light Rain
9:54 PM 39.2 °F 35.0 °F 39.2 °F 100% 30.21 in 2.5 mi NNE 5.8 mph - 0.00 in Rain Light Rain
9:56 PM 39.9 °F 35.1 °F 39.0 °F 97% 30.27 in 2.5 mi NNE 6.9 mph - 0.00 in Rain Light Rain
10:11 PM 39.2 °F 33.0 °F 39.2 °F 100% 30.21 in 3.0 mi NNE 9.2 mph - 0.00 in Rain Light Rain
10:56 PM 39.9 °F 35.1 °F 39.0 °F 97% 30.26 in 3.0 mi NNE 6.9 mph - 0.01 in Rain Light Rain
11:56 PM 39.0 °F 33.4 °F 39.0 °F 100% 30.25 in 3.0 mi NNE 8.1 mph - 0.00 in Rain Light Rain